Location: Kam�li
(14.6864°N, 3.1482°W)
Time: 23:46:18
(UTC+00:00)

Hubble Space Telescope - Pass Details

Date: 29 October 2020
Orbit: 536 x 540 km, 28.5° (Epoch: 03 December)

Event Time Altitude Azimuth Distance (km) Brightness Sun altitude
Rises 18:58:23 0° 279° (W) 2,664 5.7 -18.2°
Reaches altitude 10° 19:00:56 10° 266° (W) 1,774 4.7 -18.8°
Maximum altitude 19:04:19 25° 210° (SSW) 1,106 2.8 -19.6°
Enters shadow 19:07:20 12° 158° (SSE) 1,664 3.1 -20.3°
